Grifon-1

operational
NORAD ID: 67267 Int'l Des: NNA 2025-313 Owner: NOVSU Country: RU
NOTLE

About Grifon-1

Description loading...

Live Position

Loading 3D Globe...

Upcoming Passes

Altitude History

Altitude vs Time

uPlot chart will show altitude changes over time

Two-Line Element Set

1 67267U 25313V 26014.20005511 .00006416 00000-0 29807-3 0 9995
2 67267 97.4124 91.3755 0014602 184.4347 175.6761 15.20247318 2537
Epoch: Jan 14, 2026 • Age: 13 hours

Current Status

Altitude 517.3 km
Velocity 7.60 km/s
Sub-Earth Point 18.72°N, 72.37°E
Launch Date Dec 28, 2025
Age 17 days
Type other

Technical Details

Classification Payload
Mass 25.00 kg
Dry Mass 25.00 kg
Total Mass 25.00 kg
Length 0.40 m
Diameter 0.40 m
Span 0.40 m
Shape Box
Manufacturer NOVSU
Bus Type Cubesat 16U
Phase Status In Orbit
Owner/State NOVSU/RU

Large Constellations

Loading constellations...